TimeEST,TemperatureF,Dew PointF,Humidity,Sea Level PressureIn,VisibilityMPH,Wind Direction,Wind SpeedMPH,Gust SpeedMPH,PrecipitationIn,Events,Conditions,WindDirDegrees,DateUTC
12:53 AM,53.1,37.9,57,30.17,10.0,NNW,9.2,-,N/A,,Overcast,330,2013-03-04 05:53:00
1:53 AM,52.0,37.0,57,30.16,10.0,NW,12.7,-,N/A,,Overcast,320,2013-03-04 06:53:00
2:53 AM,51.1,39.0,63,30.14,10.0,NNW,5.8,-,N/A,,Overcast,330,2013-03-04 07:53:00
3:53 AM,48.9,37.9,66,30.13,10.0,NNW,4.6,-,N/A,,Clear,340,2013-03-04 08:53:00
4:53 AM,46.9,37.9,71,30.15,10.0,Calm,Calm,-,N/A,,Clear,0,2013-03-04 09:53:00
5:53 AM,43.0,33.1,68,30.18,10.0,ENE,6.9,-,N/A,,Clear,70,2013-03-04 10:53:00
6:53 AM,41.0,33.1,73,30.20,10.0,ENE,5.8,-,N/A,,Clear,60,2013-03-04 11:53:00
7:53 AM,45.0,33.1,63,30.22,10.0,ENE,8.1,-,N/A,,Unknown,60,2013-03-04 12:53:00
8:53 AM,50.0,30.0,46,30.24,10.0,ENE,8.1,-,N/A,,Clear,70,2013-03-04 13:53:00
9:53 AM,54.0,30.9,41,30.24,10.0,ENE,10.4,-,N/A,,Clear,70,2013-03-04 14:53:00
10:53 AM,57.9,33.1,39,30.23,10.0,NNE,10.4,-,N/A,,Clear,30,2013-03-04 15:53:00
11:53 AM,59.0,32.0,36,30.21,10.0,Variable,3.5,-,N/A,,Clear,0,2013-03-04 16:53:00
12:53 PM,60.1,37.0,42,30.18,10.0,West,9.2,-,N/A,,Clear,270,2013-03-04 17:53:00
1:53 PM,64.9,34.0,32,30.15,10.0,North,6.9,-,N/A,,Clear,10,2013-03-04 18:53:00
2:53 PM,62.1,37.0,39,30.14,10.0,West,12.7,-,N/A,,Clear,280,2013-03-04 19:53:00
3:53 PM,61.0,39.9,46,30.14,10.0,West,16.1,-,N/A,,Clear,280,2013-03-04 20:53:00
4:53 PM,59.0,39.9,49,30.15,10.0,West,12.7,-,N/A,,Clear,280,2013-03-04 21:53:00
5:53 PM,57.0,41.0,55,30.15,10.0,WNW,9.2,-,N/A,,Clear,300,2013-03-04 22:53:00
6:53 PM,52.0,41.0,66,30.16,10.0,NW,5.8,-,N/A,,Clear,320,2013-03-04 23:53:00
7:53 PM,52.0,42.1,69,30.16,10.0,Calm,Calm,-,N/A,,Clear,0,2013-03-05 00:53:00
8:53 PM,51.1,43.0,74,30.16,10.0,Calm,Calm,-,N/A,,Clear,0,2013-03-05 01:53:00
9:53 PM,48.0,42.1,80,30.17,10.0,Calm,Calm,-,N/A,,Clear,0,2013-03-05 02:53:00
10:53 PM,45.0,41.0,86,30.19,10.0,Calm,Calm,-,N/A,,Clear,0,2013-03-05 03:53:00
11:53 PM,45.0,41.0,86,30.16,10.0,East,3.5,-,N/A,,Clear,90,2013-03-05 04:53:00